Probability
0 0 0 0 0 0 0 0 0 0 0 0 0 0 0 0 0 0 0 0 0 0 0 0 0 0 0 0 0 0 0 0 0 0 0 0 0 0 0 0 0 0 0
0 0 0 0 0 0 0 0 0 0 0 0 0 0 0 0 0 0 0 0 0 0 0 0 0 0 0 0 0 0 0 0 0 0 0 0 0 0 0 0 0 0 0
0 0 0 0 0 0 0 0 0 0 0 0 0 0 0 0 0 0 0 0 0 0 0 0 0 0 0 0 0 0 0 0 0 0 0 0 0 0 0 0 0 0 0
0 0 0 0 0 0 0 0 0 0 0 0 0 0 0 0 0 0 0 0 0 0 0 0 0 0 0 0 0 0 0 0 0 0 0 0 0 0 0 0 0 0 0
0 0 0 0 0 0 0 0 0 0 0 0 0 0 0 0 0 0 0 0 0 0 0 0 0 0 0 0 0 0 0 0 0 0 0 0 0 0 0 0 0 0 0
0 0 0 0 0 0 0 0 0 0 0 0 0 0 0 0 0 0 0 0 0 0 0 0 0 0 0 0 0 0 0 0 0 0 0 0 0 0 0 0 0 0 0
0 0 0 0 0 0 0 0 0 0 0 0 0 0 0 0 0 0 0 0 0 0 0 0 0 0 0 0 0 0 0 0 0 0 0 0 0 0 0 0 0 0 0
0 0 0 0 0 0 0 0 0 0 0 0 0 0 0 0 0 0 0 0 0 0 0 0 0 0 0 0 0 0 0 0 0 0 0 0 0 0 0 0 0 0 0
0 0 0 0 0 0 0 0 0 0 0 0 0 0 0 0 0 0 0 0 0 0 0 0 0 0 0 0 0 0 0 0 0 0 0 0 0 0 0 0 0 0 0
0 0 0 0 0 0 0 0 0 0 0 0 0 0 0 0 0 0 0 0 0 0 0 0 0 0 0 0 0 0 0 0 0 0 0 0 0 0 0 0 0 0 0
0 0 0 0 0 0 0 0 0 0 0 0 0 0 0 0 0 0 0 0 0 0 0 0 0 0 0 0 0 0 0 0 0 0 0 0 0 0 0 0 0 0 0
0 0 0 0 0 0 0 0 0 0 0 0 0 0 0 0 0 0 0 0 0 0 0 0 0 0 0 0 0 0 0 0 0 0 0 0 0 0 0 0 0 0 0
0 0 0 0 0 0 0 0 0 0 0 0 0 0 0 0 0 0 0 0 0 0 0 0 0 0 0 0 0 0 0 0 0 0 0 0 0 0 0 0 0 0 0
0 0 0 0 0 0 0 0 0 0 0 0 0 0 0 0 0 0 0 0 0 0 0 0 0 0 0 0 0 0 0 0 0 0 0 0 0 0 0 0 0 0 0
0 0 0 0 0 0 0 0 0 0 0 0 0 0 0 0 0 0 0 0 0 0 0 0 0 0 0 0 0 0 0 0 0 0 0 0 0 0 0 0 0 0 0
0 0 0 0 0 0 0 0 0 0 0 0 0 0 0 0 0 0 0 0 0 0 0 0 0 0 0 0 0 0 0 0 0 0 0 0 0 0 0 0 0 0 0
0 0 0 0 0 0 0 0 0 0 0 0 0 0 0 0 0 0 0 0 0 0 0 0 0 0 0 0 0 0 0 0 0 0 0 0 0 0 0 0 0 0 0
0 0 0 0 0 0 0 0 0 0 0 0 0 0 0 0 0 0 0 0 0 0 0 0 0 0 0 0 0 0 0 0 0 0 0 0 0 0 0 0 0 0 0
0 0 0 0 0 0 0 0 0 0 0 0 0 0 0 0 0 0 0 0 0 0 0 0 0 0 0 0 0 0 0 0 0 0 0 0 0 0 0 0 0 0 0
0 0 0 0 0 0 0 0 0 0 0 0 0 0 0 0 0 0 0 0 0 0 0 0 0 0 0 0 0 0 0 0 0 0 0 0 0 0 0 0 0 0 0
0 0 0 0 0 0 0 0 0 0 0 0 0 0 0 0 0 0 0 0 0 0 0 0 0 0 0 0 0 0 0 0 0 0 0 0 0 0 0 0 0 0 0
0 0 0 0 0 0 0 0 0 0 0 0 0 0 0 0 0 0 0 0 0 0 0 0 0 0 0 0 0 0 0 0 0 0 0 0 0 0 0 0 0 0 0
0 0 0 0 0 0 0 0 0 0 0 0 0 0 0 0 0 0 0 0 0 0 0 0 0 0 0 0 0 0 0 0 0 0 0 0 0 0 0 0 0 0 0
0 0 0 0 0 0 0 0 0 0 0 0 0 0 0 0 0 0 0 0 0 0 0 0 0 0 0 0 0 0 0 0 0 0 0 0 0 0 0 0 0 0 0
0 0 0 0 0 0 0 0 0 0 0 0 0 0 0 0 0 0 0 0 0 0 0 0 0 0 0 0 0 0 0 0 0 0 0 0 0 0 0 0 0 0 0
0 0 0 0 0 0 0 0 0 0 0 0 0 0 0 0 0 0 0 0 0 0 0 0 0 0 0 0 0 0 0 0 0 0 0 0 0 0 0 0 0 0 0
Wind_Speed
6 4 4 3 3 3 3 4 4 4 4 5 6 7 8 8 8 9 11 10 11 12 11 12 14 12 11 10 10 10 11 11 17 11 5 7 10 12 11 12 12 14 14
5 4 4 4 4 3 4 4 4 5 5 5 6 6 7 8 8 10 11 11 12 13 12 12 14 10 13 11 10 12 11 12 13 16 6 6 10 10 10 12 11 11 11
6 6 6 6 6 6 5 5 5 5 5 5 5 6 7 8 8 9 11 11 12 12 12 12 12 10 12 10 11 11 10 10 12 12 10 5 5 5 7 8 9 9 10
7 7 7 7 7 7 7 6 6 5 6 6 6 6 7 7 8 8 9 10 11 11 10 11 10 10 11 10 10 11 10 10 10 11 10 5 4 4 6 7 9 9 9
6 6 6 6 7 7 7 7 7 6 6 6 6 7 6 6 6 8 8 10 11 11 10 9 10 11 12 11 9 9 9 10 9 10 10 7 6 6 8 7 9 7 7
5 5 5 6 6 6 7 7 7 7 7 6 6 7 7 6 10 12 11 9 9 10 10 9 9 9 12 15 16 15 13 11 11 10 10 10 10 9 7 8 7 6 6
5 5 5 6 7 7 7 7 7 7 7 7 7 6 8 9 13 13 12 9 9 9 9 8 7 6 8 9 12 15 15 17 17 12 12 12 9 9 10 10 10 8 5
5 6 6 7 8 8 7 7 7 6 6 7 7 7 8 9 13 13 12 9 9 9 8 8 8 8 6 8 8 9 10 10 11 10 9 9 7 7 10 9 8 6 4
6 7 7 8 9 9 9 9 8 7 7 7 7 7 8 9 11 13 12 6 7 8 7 7 7 8 10 12 9 9 9 7 9 10 10 8 8 10 10 7 7 7 4
7 8 8 8 8 9 9 9 7 7 8 7 7 7 7 8 11 13 12 5 7 7 5 5 7 9 11 11 8 7 9 6 3 4 5 5 5 9 13 9 8 7 4
7 8 8 7 8 8 8 7 7 7 7 7 8 7 6 7 10 13 12 5 5 6 5 4 4 9 11 10 9 6 7 5 2 2 2 2 3 3 5 5 5 6 5
7 8 8 8 7 7 8 8 6 6 7 8 7 8 5 5 6 9 12 10 8 6 6 4 4 8 9 8 6 5 6 3 1 1 2 2 2 2 3 4 4 3 2
8 8 8 8 7 7 7 8 7 5 5 6 6 7 6 4 5 10 10 10 10 6 4 6 6 7 5 3 4 3 0 1 2 2 2 1 1 3 4 4 4 5 6
8 9 8 8 8 7 6 6 6 6 5 6 6 6 6 5 4 4 4 4 5 4 3 3 4 4 2 2 2 1 1 2 2 2 2 2 2 3 3 3 2 3 3
8 8 8 7 7 7 6 6 7 6 6 7 5 5 6 6 6 9 6 3 2 2 2 1 2 2 2 2 3 3 3 3 2 2 3 3 3 3 2 2 2 2 2
8 8 6 6 6 6 7 7 8 8 9 9 8 7 6 7 9 9 8 6 4 2 2 2 2 2 2 2 3 3 3 3 2 2 3 2 2 2 2 2 2 2 2
7 8 7 7 7 6 6 6 7 6 6 7 7 7 7 7 7 7 6 5 6 5 3 2 2 3 3 3 3 2 2 2 2 2 2 2 2 2 2 2 2 1 1
8 8 8 7 7 6 6 6 5 5 5 4 5 7 8 8 9 9 7 5 5 6 3 3 3 3 3 3 3 3 3 3 3 3 3 2 2 2 2 2 1 1 1
8 7 6 7 7 6 6 5 4 4 3 3 3 4 7 7 9 12 9 5 3 4 4 4 3 3 3 3 3 3 3 3 3 3 2 2 2 2 2 1 1 2 1
6 9 8 6 6 5 4 4 3 2 1 1 2 3 4 4 4 6 6 5 4 4 3 3 3 3 3 3 3 3 3 3 3 3 2 2 2 2 2 2 1 1 1
6 7 7 6 5 4 3 3 2 1 0 1 2 4 5 3 4 4 4 4 4 4 3 3 3 3 3 3 3 3 3 3 2 2 2 2 2 1 1 1 1 1 1
5 5 5 4 4 3 2 2 1 1 2 2 2 4 7 5 4 4 3 3 3 3 3 2 2 2 2 2 2 2 2 2 2 2 1 1 1 1 1 1 1 1 1
4 4 4 3 3 3 2 2 2 2 2 3 3 3 3 3 3 3 3 2 2 2 2 2 2 2 2 2 2 1 1 1 1 0 0 0 1 1 1 1 1 1 1
4 4 4 3 3 2 2 2 2 2 2 2 2 2 2 2 2 2 2 2 2 2 2 2 1 2 3 2 1 1 1 1 1 1 1 1 1 1 1 1 1 1 1
4 4 4 3 3 3 2 2 3 3 2 2 2 2 1 1 1 1 1 2 2 2 2 2 1 2 2 3 2 2 3 3 2 1 1 1 2 1 1 1 1 1 1
4 4 3 3 3 3 2 2 2 2 2 2 1 1 1 1 2 2 2 2 2 2 2 2 2 3 3 3 4 5 5 5 4 4 3 2 3 2 2 2 2 2 2
Wind_Direction
17 11 6 351 336 323 301 287 279 271 259 250 245 244 245 245 242 243 246 243 243 243 235 234 237 232 234 231 228 227 228 231 256 262 211 199 199 213 217 216 219 221 224
5 9 11 2 353 342 321 306 293 281 269 258 254 250 249 248 244 244 249 247 248 249 246 243 243 236 235 234 231 232 232 228 242 261 244 202 207 210 211 212 215 217 219
5 10 11 6 359 347 333 322 311 297 288 276 263 258 255 252 250 248 252 254 252 253 251 249 248 240 241 238 235 237 236 234 235 250 253 210 202 194 203 212 212 214 215
6 10 7 357 348 338 333 330 324 314 304 295 279 268 263 260 254 253 253 257 258 257 254 251 250 243 244 242 241 242 241 241 239 245 249 220 193 176 189 204 212 210 213
2 5 355 342 338 335 333 329 324 317 307 299 292 285 276 268 260 257 256 258 260 261 258 252 251 249 248 247 247 246 240 244 243 242 244 229 204 184 201 197 208 200 206
356 351 337 335 334 331 326 321 318 315 311 307 297 292 289 280 279 271 264 262 260 260 261 256 252 249 251 252 253 252 246 245 245 242 241 236 226 210 198 193 190 180 201
349 344 342 338 333 328 321 319 317 313 310 305 300 297 292 291 292 285 272 265 263 261 260 261 258 249 247 253 258 260 257 252 248 246 247 240 229 207 193 194 193 190 189
345 344 344 340 332 328 326 322 317 312 307 303 301 296 293 293 297 294 286 270 265 262 258 258 262 263 250 251 255 258 257 255 253 248 250 248 234 204 194 192 185 158 97
346 342 339 334 328 326 323 319 316 313 310 304 300 296 294 296 298 297 293 279 273 270 263 255 256 262 263 258 256 260 264 264 264 255 251 245 227 196 174 157 156 158 154
337 330 326 323 318 314 311 309 308 305 301 303 300 297 293 294 300 300 295 278 278 279 272 259 253 259 267 263 252 254 262 264 252 259 247 232 205 184 174 169 164 166 149
326 319 315 312 307 301 300 299 302 301 300 299 298 298 292 289 297 301 297 283 273 280 280 277 266 273 273 270 262 255 260 263 240 239 225 170 148 151 162 159 162 166 163
320 313 309 306 303 301 298 298 295 294 297 298 300 301 295 290 293 299 300 291 287 279 280 279 274 280 281 279 276 267 265 252 158 138 122 120 127 133 133 134 132 122 111
316 308 304 302 298 294 292 294 296 292 289 294 296 299 303 302 301 306 305 302 300 292 284 286 287 288 288 292 294 291 251 134 126 126 125 116 112 117 110 101 93 88 79
307 304 302 302 302 299 291 286 286 287 286 287 290 294 299 301 299 298 297 301 304 305 306 311 315 323 341 8 6 25 76 105 120 122 112 93 88 96 103 104 109 108 94
304 300 300 295 293 298 293 282 281 270 260 276 282 282 290 297 300 307 309 302 290 285 317 351 9 10 17 29 42 48 53 65 70 72 86 88 86 85 78 72 88 100 115
307 305 302 299 295 292 296 300 294 289 291 291 291 292 287 290 303 313 320 325 330 358 44 38 29 30 32 35 43 47 47 52 59 77 88 93 98 102 94 78 76 96 112
292 295 294 291 288 287 285 286 296 305 306 317 324 329 332 340 345 344 349 17 33 45 51 48 41 34 34 37 40 47 45 41 55 75 85 89 94 97 101 103 93 88 94
287 283 279 280 279 277 275 276 279 285 297 308 335 353 2 10 19 18 21 43 38 36 41 46 40 35 34 35 37 41 47 46 52 62 68 72 80 94 104 112 113 113 116
290 285 280 280 279 275 273 273 274 278 283 298 322 345 358 7 29 33 36 48 56 42 39 41 36 33 33 35 38 41 48 51 51 60 63 63 66 80 93 100 108 113 113
282 283 287 285 284 281 277 273 275 278 291 335 351 344 349 14 28 23 31 38 51 47 40 40 33 31 30 31 33 40 48 50 49 52 54 55 55 69 95 111 121 130 140
290 290 290 288 283 284 285 283 286 288 341 44 14 23 52 57 54 46 42 38 38 36 31 34 33 29 26 25 29 40 49 46 42 45 47 47 53 61 68 89 107 111 116
291 293 296 296 299 305 313 325 341 24 66 65 32 22 49 59 57 54 47 38 30 28 25 36 36 26 19 18 19 33 43 40 33 34 39 42 52 65 79 91 97 109 127
307 308 310 314 321 338 355 8 24 47 58 57 48 38 39 47 49 47 40 28 23 21 20 30 33 20 11 10 12 22 31 354 322 264 114 80 76 88 105 123 139 138 160
325 326 329 335 348 360 9 16 30 46 52 52 47 43 41 41 38 32 21 13 12 9 11 16 16 4 356 353 349 339 298 277 259 220 190 178 175 161 141 145 162 177 188
345 348 351 353 358 4 12 20 27 31 31 29 26 25 23 19 10 358 349 347 347 343 342 339 333 330 327 322 312 299 297 297 271 206 181 172 179 180 178 183 185 187 193
352 356 359 359 360 1 6 9 8 4 358 349 346 339 330 323 316 314 316 316 313 308 306 303 299 298 297 294 289 286 276 269 243 212 185 177 182 192 187 192 196 196 195